Location: Seattle
(47.6064°N, 122.3308°W)
Time: 20:10:22
(UTC-07:00)

Tiros 1 - Pass Details

Date: 29 July 2021
Orbit: 630 x 663 km, 48.4° (Epoch: 18 September)

Event Time Altitude Azimuth Distance (km) Brightness Sun altitude
Rises 00:14:48 0° 281° (W) 2,962 10.9 -22.3°
Reaches altitude 10° 00:17:08 10° 281° (W) 2,045 10.0 -22.4°
Maximum altitude 00:21:52 87° 196° (SSW) 647 7.0 -22.6°
Enters shadow 00:22:47 58° 109° (ESE) 750 7.2 -22.7°
